Find SAR-Lupe 2

NORAD ID: 31797 Int'l Des: 2007-030 Owner: BWB Country: D operational
LEOCIRCULARRETROGRADE

Live Position

Loading 3D Globe...

About SAR-Lupe 2

Description loading...

Upcoming Passes

Passes for default location (London). Set your location on the main map for personalized predictions.

Altitude History

Loading altitude history...

Two-Line Element Set

1 31797U 07030A 26107.26912889 .00013391 00000-0 29822-3 0 9991
2 31797 98.1001 204.5365 0009656 339.1887 20.8964 15.43720083 47528
Epoch: Apr 17, 2026 • Age: 9 hours

Current Status

Altitude 446.4 km
Velocity 7.64 km/s
Sub-Earth Point -14.10°S, 49°W
Launch Date Jul 2, 2007
Age 18.7 years
Type other

Technical Details

Classification Payload
Mass 770.00 kg
Dry Mass 770.00 kg
Total Mass 770.00 kg
Length 4.00 m
Diameter 3.00 m
Span 4.00 m
Shape Cyl + Dish
Manufacturer OHB
Bus Type SAR-Lupe
Phase Status In Orbit
Owner/State BWB/D

Most Searched